Погода в Родниках

Россия / Ивановская область     57°06′25″N   41°44′00″E
темп.,
°C
ветер,
м/с
пор.,
м/с
влажн.,
%
обл.,
%
осадки,
мм/ч
давл.,
гПа
погр.,
м
16 мая, вс
вс1600:00+14ю3119610 0.0 1011285
03:00+12ю38963 0.0 1011163
06:00+14ююз410900 0.0 1011349
09:00+18юз59692 0.0 1012782
12:00+21юз69540 0.0 10131522
15:00+22юз59531 0.0 10132136
18:00+21юз386566 0.0 1012445
21:00+15юз33840 0.2 101447
17 мая, пн
пн1700:00+13зюз22890 0.0 101538
03:00+12юз22921 0.0 101611
06:00+14юз1284100 0.0 101768
09:00+20юв22665 0.0 1017509
12:00+23юв23525 0.0 10171232
15:00+25в345090 0.0 10161445
18:00+23в486765 0.0 1015355
21:00+17в41090100 1.6 1015176
18 мая, вт
вт1800:00+16вюв389669 1.3 1015141
03:00+15юв3793100 1.3 1015121
06:00+16юв31086100 0.0 1015183
09:00+22вюв5967100 0.0 1015417
12:00+26юв585199 0.0 10151005
15:00+27юв5948100 0.0 10142014
18:00+24юв5125698 0.0 1013543
21:00+19вюв5157154 0.0 1014361
19 мая, ср
ср1900:00+18юв514765 0.0 1013293
03:00+16вюв515725 0.0 1014307
06:00+17вюв5157370 0.0 1013358
09:00+23юв511605 0.0 1013531
12:00+27юв611452 0.0 10121232
15:00+28юв610460 0.0 10121825
18:00+25юв612615 0.0 1011851
21:00+19ююв2784100 2.0 1012260
20 мая, чт
чт2000:00+17юв31095100 3.4 1012227
03:00+16юв3897100 3.4 1011188
06:00+16вюв4109215 0.0 1010298
09:00+21вюв610695 0.0 1009675
12:00+25юв712573 0.0 10081606
15:00+23ююв914652 1.2 10081744
18:00+19ю511735 0.6 10101298
21:00+15ююв41190100 0.9 1010429